Location: B?dargowo
(53.3916°N, 14.4413°E)
Time: 05:21:25
(UTC+00:00)

COSMO-SKYMED 1 - Pass Details

Date: 05 February 2023
Orbit: 621 x 623 km, 97.9° (Epoch: 24 March)

Event Time Altitude Azimuth Distance (km) Brightness Sun altitude
Rises 17:40:21 0° 12° (NNE) 2,922 5.8 -16.2°
Reaches altitude 10° 17:42:33 10° 10° (N) 2,010 5.0 -16.6°
Maximum altitude 17:46:54 66° 289° (WNW) 686 2.9 -17.2°
Drops below altitude 10° 17:51:11 10° 207° (SSW) 1,993 5.5 -17.8°
Sets 17:53:23 0° 205° (SSW) 2,894 6.4 -18.2°
